Terminal Aerodrome Forecast
Issued by NWS Memphis, TN

Home | Current Version | Previous Version | Text Only | Print | Product List | Glossary On
Versions: 1 2 3 4 5 6 7 8 9 10 11 12 13 14 15 16 17 18 19 20 21 22 23 24 25 26
964
FTUS44 KMEG 110520
TAFMEM
TAF
KMEM 110520Z 1106/1206 11008KT P6SM SKC
     FM111400 05010KT P6SM FEW050 SCT250
     FM120000 05006KT P6SM BKN250=

USA.gov is the U.S. government's official web portal to all federal, state and local government web resources and services.